QPF
0.03 0.03 0.03 0.03 0.03 0.04 0.05 0.05 0.05 0.05 0.04 0.03 0.02 0.02 0.02 0.05 0.07 0.07 0.07 0.05 0.04 0.04 0.05 0.05 0.05 0.04 0.03 0.03 0.03 0.03 0.04 0.03 0.03 0.03 0.03 0.03 0.04 0.05
0.04 0.04 0.03 0.03 0.04 0.04 0.05 0.05 0.05 0.06 0.04 0.02 0.02 0.02 0.02 0.03 0.05 0.05 0.06 0.07 0.07 0.07 0.07 0.07 0.06 0.05 0.05 0.04 0.04 0.04 0.04 0.03 0.02 0.02 0.02 0.02 0.02 0.03
0.04 0.03 0.04 0.04 0.05 0.05 0.04 0.04 0.05 0.05 0.04 0.02 0.01 0.02 0.02 0.02 0.02 0.04 0.04 0.05 0.06 0.06 0.08 0.09 0.07 0.06 0.05 0.04 0.03 0.02 0.02 0.02 0.02 0.02 0.02 0.02 0.02 0.01
0.04 0.04 0.04 0.04 0.06 0.06 0.05 0.06 0.07 0.06 0.04 0.03 0.02 0.01 0.02 0.02 0.02 0.03 0.03 0.03 0.04 0.07 0.08 0.06 0.05 0.04 0.03 0.02 0.02 0.01 0.01 0.02 0.02 0.02 0.02 0.02 0.02 0.01
0.05 0.06 0.07 0.07 0.07 0.07 0.08 0.06 0.05 0.04 0.04 0.03 0.02 0.02 0.01 0.01 0.03 0.04 0.05 0.04 0.03 0.07 0.06 0.03 0.02 0.02 0.01 0.01 0.01 0.01 0.01 0.01 0.01 0.01 0.02 0.02 0.01 0.01
0.02 0.03 0.05 0.05 0.06 0.06 0.06 0.06 0.04 0.04 0.04 0.03 0.02 0.02 0.02 0.04 0.05 0.07 0.07 0.07 0.07 0.08 0.08 0.04 0.02 0.01 0.01 0.01 0.00 0.00 0.00 0.00 0.00 0.00 0.01 0.01 0.01 0.01
0.03 0.03 0.03 0.03 0.03 0.04 0.03 0.05 0.05 0.05 0.04 0.03 0.03 0.02 0.02 0.05 0.05 0.05 0.05 0.06 0.07 0.07 0.06 0.05 0.03 0.02 0.02 0.01 0.01 0.01 0.01 0.00 0.00 0.00 0.00 0.01 0.01 0.01
0.03 0.04 0.03 0.02 0.02 0.02 0.03 0.03 0.04 0.04 0.05 0.04 0.03 0.03 0.03 0.04 0.04 0.03 0.03 0.04 0.05 0.05 0.05 0.05 0.04 0.03 0.03 0.03 0.03 0.03 0.02 0.01 0.01 0.01 0.01 0.00 0.01 0.01
0.04 0.04 0.04 0.03 0.03 0.03 0.03 0.03 0.03 0.02 0.02 0.03 0.03 0.02 0.02 0.03 0.04 0.02 0.03 0.04 0.04 0.04 0.05 0.05 0.04 0.04 0.04 0.03 0.03 0.03 0.03 0.02 0.01 0.01 0.01 0.01 0.01 0.01
0.03 0.04 0.05 0.05 0.04 0.04 0.05 0.05 0.04 0.03 0.02 0.02 0.02 0.02 0.02 0.02 0.03 0.02 0.03 0.03 0.03 0.04 0.04 0.05 0.05 0.05 0.04 0.04 0.04 0.03 0.02 0.01 0.01 0.01 0.01 0.01 0.01 0.01
0.02 0.03 0.04 0.06 0.05 0.05 0.06 0.06 0.06 0.06 0.04 0.03 0.03 0.02 0.01 0.01 0.01 0.01 0.03 0.03 0.03 0.04 0.03 0.03 0.04 0.04 0.04 0.04 0.03 0.03 0.02 0.01 0.01 0.01 0.01 0.01 0.01 0.01
0.02 0.04 0.05 0.06 0.06 0.06 0.06 0.07 0.08 0.07 0.06 0.05 0.04 0.02 0.02 0.01 0.01 0.01 0.03 0.04 0.04 0.05 0.04 0.03 0.04 0.04 0.05 0.04 0.05 0.04 0.03 0.02 0.01 0.01 0.01 0.01 0.00 0.01
0.03 0.03 0.04 0.03 0.02 0.02 0.03 0.05 0.05 0.06 0.06 0.05 0.04 0.04 0.03 0.03 0.03 0.02 0.02 0.03 0.04 0.04 0.03 0.03 0.04 0.04 0.05 0.05 0.05 0.06 0.05 0.03 0.02 0.01 0.01 0.01 0.01 0.01
0.03 0.03 0.03 0.02 0.01 0.01 0.01 0.02 0.04 0.05 0.06 0.06 0.05 0.04 0.04 0.03 0.03 0.02 0.03 0.03 0.03 0.03 0.03 0.03 0.04 0.04 0.04 0.05 0.05 0.05 0.04 0.02 0.02 0.02 0.01 0.01 0.02 0.02
0.03 0.03 0.03 0.02 0.01 0.01 0.02 0.03 0.04 0.04 0.05 0.06 0.05 0.03 0.03 0.03 0.04 0.04 0.03 0.03 0.02 0.02 0.03 0.03 0.03 0.03 0.04 0.04 0.05 0.05 0.03 0.03 0.02 0.02 0.02 0.02 0.02 0.01
0.04 0.03 0.03 0.02 0.01 0.02 0.03 0.03 0.03 0.04 0.05 0.05 0.05 0.03 0.03 0.03 0.03 0.02 0.03 0.03 0.03 0.04 0.04 0.03 0.04 0.05 0.05 0.04 0.04 0.04 0.03 0.04 0.03 0.02 0.03 0.02 0.02 0.02
0.04 0.03 0.02 0.02 0.02 0.02 0.03 0.03 0.03 0.04 0.05 0.04 0.04 0.03 0.02 0.02 0.03 0.02 0.02 0.02 0.02 0.03 0.03 0.04 0.06 0.07 0.06 0.04 0.04 0.04 0.03 0.03 0.03 0.03 0.03 0.02 0.02 0.02
0.03 0.02 0.02 0.02 0.02 0.03 0.03 0.03 0.03 0.03 0.03 0.04 0.04 0.03 0.02 0.02 0.02 0.02 0.02 0.02 0.03 0.03 0.04 0.05 0.06 0.06 0.05 0.05 0.05 0.04 0.04 0.04 0.04 0.04 0.03 0.03 0.02 0.03
0.02 0.02 0.02 0.02 0.02 0.02 0.02 0.03 0.03 0.03 0.03 0.04 0.03 0.02 0.03 0.03 0.03 0.03 0.03 0.03 0.03 0.04 0.04 0.05 0.05 0.05 0.05 0.05 0.05 0.04 0.04 0.04 0.05 0.05 0.04 0.04 0.03 0.03
0.02 0.02 0.02 0.02 0.02 0.01 0.02 0.03 0.04 0.03 0.04 0.04 0.04 0.03 0.03 0.03 0.03 0.03 0.04 0.04 0.04 0.04 0.05 0.05 0.04 0.04 0.05 0.05 0.05 0.04 0.03 0.03 0.04 0.04 0.03 0.03 0.03 0.04
0.02 0.02 0.02 0.02 0.02 0.02 0.02 0.02 0.03 0.04 0.04 0.05 0.04 0.03 0.03 0.03 0.03 0.03 0.04 0.04 0.03 0.03 0.04 0.04 0.04 0.03 0.03 0.03 0.03 0.02 0.01 0.01 0.02 0.03 0.03 0.03 0.03 0.04
0.02 0.02 0.02 0.02 0.03 0.03 0.03 0.03 0.04 0.04 0.04 0.04 0.03 0.02 0.02 0.02 0.03 0.03 0.04 0.04 0.04 0.03 0.03 0.03 0.03 0.03 0.02 0.02 0.01 0.01 0.01 0.02 0.02 0.03 0.03 0.03 0.04 0.05
0.02 0.02 0.02 0.02 0.03 0.03 0.03 0.03 0.04 0.05 0.04 0.04 0.02 0.02 0.02 0.02 0.02 0.02 0.03 0.04 0.04 0.03 0.03 0.03 0.03 0.03 0.02 0.01 0.01 0.01 0.01 0.02 0.03 0.04 0.03 0.03 0.03 0.03
MSLP
1016.54 1016.48 1016.45 1016.44 1016.44 1016.43 1016.39 1016.30 1016.15 1015.93 1015.65 1015.34 1015.02 1014.73 1014.49 1014.33 1014.27 1014.29 1014.40 1014.58 1014.79 1015.02 1015.23 1015.42 1015.57 1015.68 1015.76 1015.82 1015.86 1015.90 1015.95 1016.00 1016.05 1016.10 1016.13 1016.15 1016.12 1016.06
1016.67 1016.58 1016.50 1016.44 1016.40 1016.36 1016.30 1016.20 1016.04 1015.82 1015.54 1015.20 1014.85 1014.51 1014.20 1013.97 1013.82 1013.76 1013.79 1013.91 1014.08 1014.29 1014.51 1014.72 1014.91 1015.07 1015.21 1015.33 1015.44 1015.54 1015.64 1015.74 1015.83 1015.91 1015.96 1015.98 1015.95 1015.88
1016.75 1016.64 1016.54 1016.47 1016.41 1016.36 1016.30 1016.20 1016.05 1015.83 1015.55 1015.21 1014.83 1014.44 1014.08 1013.76 1013.52 1013.37 1013.31 1013.35 1013.46 1013.62 1013.82 1014.04 1014.26 1014.47 1014.67 1014.86 1015.04 1015.21 1015.37 1015.52 1015.65 1015.75 1015.82 1015.83 1015.79 1015.70
1016.76 1016.67 1016.58 1016.51 1016.47 1016.43 1016.38 1016.30 1016.16 1015.97 1015.70 1015.36 1014.97 1014.55 1014.13 1013.75 1013.42 1013.17 1013.02 1012.96 1013.00 1013.11 1013.28 1013.49 1013.72 1013.97 1014.21 1014.46 1014.70 1014.94 1015.16 1015.35 1015.52 1015.65 1015.71 1015.72 1015.65 1015.52
1016.74 1016.67 1016.62 1016.58 1016.55 1016.54 1016.51 1016.46 1016.36 1016.19 1015.94 1015.62 1015.23 1014.79 1014.34 1013.90 1013.51 1013.19 1012.95 1012.80 1012.76 1012.81 1012.94 1013.12 1013.35 1013.61 1013.90 1014.19 1014.48 1014.76 1015.03 1015.26 1015.45 1015.58 1015.64 1015.63 1015.53 1015.35
1016.71 1016.68 1016.66 1016.65 1016.66 1016.67 1016.68 1016.66 1016.58 1016.44 1016.22 1015.92 1015.55 1015.12 1014.66 1014.19 1013.76 1013.38 1013.07 1012.86 1012.76 1012.75 1012.83 1012.98 1013.20 1013.46 1013.75 1014.07 1014.38 1014.69 1014.97 1015.22 1015.41 1015.54 1015.59 1015.54 1015.40 1015.17
1016.70 1016.71 1016.72 1016.74 1016.78 1016.82 1016.84 1016.84 1016.79 1016.67 1016.48 1016.21 1015.87 1015.45 1015.00 1014.54 1014.09 1013.69 1013.35 1013.10 1012.95 1012.90 1012.94 1013.07 1013.26 1013.51 1013.79 1014.09 1014.40 1014.71 1014.98 1015.22 1015.39 1015.49 1015.51 1015.42 1015.24 1014.97
1016.73 1016.76 1016.80 1016.85 1016.90 1016.95 1016.98 1016.99 1016.95 1016.85 1016.67 1016.43 1016.11 1015.73 1015.31 1014.86 1014.43 1014.04 1013.70 1013.45 1013.28 1013.21 1013.23 1013.33 1013.50 1013.71 1013.97 1014.24 1014.51 1014.78 1015.01 1015.20 1015.34 1015.40 1015.37 1015.24 1015.03 1014.72
1016.79 1016.85 1016.91 1016.97 1017.03 1017.07 1017.10 1017.09 1017.05 1016.94 1016.78 1016.55 1016.25 1015.90 1015.51 1015.11 1014.72 1014.36 1014.05 1013.82 1013.67 1013.60 1013.62 1013.70 1013.84 1014.02 1014.23 1014.45 1014.66 1014.86 1015.02 1015.15 1015.21 1015.21 1015.14 1014.98 1014.73 1014.41
1016.87 1016.96 1017.04 1017.11 1017.16 1017.19 1017.20 1017.18 1017.11 1016.99 1016.81 1016.58 1016.29 1015.97 1015.61 1015.26 1014.91 1014.60 1014.34 1014.15 1014.03 1013.99 1014.01 1014.09 1014.21 1014.35 1014.50 1014.65 1014.78 1014.89 1014.96 1015.00 1014.99 1014.93 1014.80 1014.61 1014.35 1014.02
1016.95 1017.07 1017.17 1017.25 1017.31 1017.33 1017.32 1017.27 1017.16 1017.02 1016.82 1016.57 1016.28 1015.96 1015.63 1015.31 1015.01 1014.75 1014.54 1014.40 1014.33 1014.31 1014.35 1014.43 1014.52 1014.62 1014.71 1014.78 1014.82 1014.83 1014.80 1014.75 1014.66 1014.53 1014.36 1014.15 1013.89 1013.57
1016.99 1017.16 1017.29 1017.40 1017.47 1017.49 1017.47 1017.39 1017.26 1017.08 1016.85 1016.58 1016.27 1015.95 1015.63 1015.33 1015.05 1014.83 1014.67 1014.57 1014.53 1014.55 1014.60 1014.67 1014.74 1014.80 1014.82 1014.81 1014.76 1014.67 1014.55 1014.41 1014.25 1014.07 1013.87 1013.65 1013.40 1013.12
1016.97 1017.19 1017.39 1017.54 1017.63 1017.67 1017.65 1017.57 1017.42 1017.22 1016.96 1016.66 1016.34 1016.00 1015.67 1015.37 1015.11 1014.90 1014.76 1014.69 1014.67 1014.70 1014.75 1014.81 1014.85 1014.86 1014.83 1014.74 1014.61 1014.43 1014.23 1014.02 1013.80 1013.59 1013.38 1013.17 1012.95 1012.72
1016.89 1017.18 1017.43 1017.63 1017.78 1017.85 1017.86 1017.78 1017.64 1017.43 1017.16 1016.84 1016.50 1016.15 1015.80 1015.49 1015.22 1015.02 1014.87 1014.80 1014.78 1014.80 1014.83 1014.87 1014.87 1014.84 1014.75 1014.59 1014.39 1014.15 1013.90 1013.63 1013.38 1013.16 1012.95 1012.78 1012.60 1012.43
1016.75 1017.10 1017.42 1017.68 1017.88 1018.00 1018.04 1018.01 1017.89 1017.69 1017.43 1017.12 1016.78 1016.42 1016.06 1015.74 1015.45 1015.23 1015.06 1014.96 1014.91 1014.90 1014.90 1014.89 1014.85 1014.77 1014.62 1014.42 1014.17 1013.89 1013.60 1013.31 1013.06 1012.84 1012.67 1012.53 1012.41 1012.29
1016.57 1016.97 1017.34 1017.65 1017.90 1018.08 1018.18 1018.19 1018.12 1017.97 1017.75 1017.47 1017.15 1016.80 1016.45 1016.11 1015.81 1015.56 1015.36 1015.22 1015.12 1015.06 1015.00 1014.94 1014.84 1014.71 1014.52 1014.28 1014.00 1013.70 1013.40 1013.12 1012.88 1012.69 1012.56 1012.47 1012.41 1012.35
1016.39 1016.82 1017.21 1017.55 1017.85 1018.08 1018.23 1018.31 1018.31 1018.23 1018.07 1017.85 1017.57 1017.26 1016.93 1016.60 1016.29 1016.02 1015.78 1015.59 1015.43 1015.30 1015.18 1015.05 1014.90 1014.71 1014.48 1014.21 1013.92 1013.62 1013.33 1013.07 1012.87 1012.72 1012.63 1012.60 1012.59 1012.58
1016.23 1016.65 1017.04 1017.40 1017.72 1017.98 1018.19 1018.34 1018.42 1018.42 1018.35 1018.21 1018.01 1017.76 1017.48 1017.18 1016.88 1016.58 1016.31 1016.07 1015.85 1015.65 1015.46 1015.27 1015.05 1014.81 1014.55 1014.26 1013.96 1013.67 1013.40 1013.18 1013.01 1012.91 1012.87 1012.88 1012.91 1012.94
1016.10 1016.49 1016.87 1017.22 1017.54 1017.84 1018.10 1018.31 1018.46 1018.56 1018.59 1018.55 1018.44 1018.27 1018.05 1017.79 1017.51 1017.22 1016.93 1016.64 1016.37 1016.11 1015.85 1015.59 1015.31 1015.03 1014.73 1014.43 1014.13 1013.85 1013.60 1013.41 1013.28 1013.21 1013.21 1013.25 1013.31 1013.37
1016.02 1016.37 1016.72 1017.05 1017.38 1017.70 1017.99 1018.27 1018.50 1018.68 1018.81 1018.87 1018.85 1018.77 1018.62 1018.41 1018.16 1017.88 1017.58 1017.27 1016.95 1016.64 1016.32 1016.00 1015.68 1015.36 1015.03 1014.71 1014.41 1014.13 1013.91 1013.73 1013.62 1013.58 1013.59 1013.64 1013.72 1013.79
1015.98 1016.31 1016.63 1016.96 1017.29 1017.63 1017.96 1018.28 1018.58 1018.84 1019.05 1019.19 1019.26 1019.25 1019.17 1019.01 1018.80 1018.54 1018.24 1017.91 1017.57 1017.22 1016.87 1016.51 1016.15 1015.79 1015.44 1015.10 1014.79 1014.51 1014.28 1014.11 1014.00 1013.96 1013.96 1014.01 1014.08 1014.13
1015.99 1016.31 1016.64 1016.98 1017.33 1017.69 1018.06 1018.43 1018.77 1019.09 1019.35 1019.55 1019.68 1019.73 1019.69 1019.58 1019.40 1019.16 1018.87 1018.55 1018.20 1017.84 1017.46 1017.08 1016.70 1016.31 1015.94 1015.59 1015.26 1014.97 1014.72 1014.53 1014.40 1014.33 1014.31 1014.32 1014.36 1014.39
1016.03 1016.40 1016.77 1017.14 1017.53 1017.93 1018.34 1018.74 1019.12 1019.46 1019.75 1019.98 1020.14 1020.21 1020.20 1020.11 1019.95 1019.73 1019.46 1019.15 1018.82 1018.46 1018.09 1017.70 1017.32 1016.93 1016.54 1016.17 1015.82 1015.50 1015.23 1015.00 1014.82 1014.70 1014.63 1014.59 1014.58 1014.56
Thickness
5698 5697 5698 5699 5699 5699 5697 5695 5691 5688 5690 5693 5694 5695 5693 5692 5690 5690 5690 5689 5687 5686 5685 5683 5682 5682 5682 5681 5681 5681 5681 5681 5681 5680 5679 5679 5679 5678
5691 5691 5692 5694 5695 5695 5694 5692 5691 5687 5687 5690 5689 5690 5688 5688 5686 5686 5686 5684 5683 5683 5681 5679 5678 5678 5678 5678 5678 5677 5677 5677 5677 5676 5675 5674 5674 5674
5686 5687 5687 5687 5689 5690 5689 5688 5687 5685 5682 5685 5686 5685 5682 5682 5682 5682 5683 5682 5682 5679 5677 5676 5675 5674 5674 5674 5673 5673 5674 5673 5673 5672 5671 5670 5669 5669
5681 5682 5682 5683 5682 5683 5683 5683 5682 5680 5679 5677 5679 5680 5677 5678 5678 5677 5679 5680 5679 5676 5674 5672 5671 5670 5669 5669 5668 5668 5668 5669 5668 5667 5666 5665 5665 5664
5677 5677 5678 5678 5676 5677 5677 5678 5678 5679 5676 5675 5675 5675 5675 5675 5674 5674 5675 5674 5675 5673 5670 5669 5667 5666 5664 5663 5663 5663 5663 5663 5662 5662 5661 5660 5660 5659
5672 5673 5673 5673 5672 5672 5672 5672 5673 5672 5672 5671 5672 5672 5671 5672 5670 5670 5670 5670 5670 5671 5668 5666 5664 5662 5660 5659 5659 5658 5657 5657 5656 5656 5655 5654 5655 5655
5668 5668 5669 5668 5666 5666 5668 5668 5668 5668 5668 5667 5667 5667 5666 5665 5665 5666 5665 5665 5666 5666 5665 5663 5662 5661 5659 5656 5654 5653 5652 5651 5651 5650 5649 5649 5649 5649
5662 5663 5664 5663 5661 5659 5660 5660 5660 5661 5662 5661 5661 5661 5659 5661 5660 5660 5660 5659 5658 5661 5659 5658 5658 5657 5655 5654 5651 5649 5647 5646 5645 5645 5644 5644 5644 5644
5655 5656 5659 5661 5659 5659 5657 5655 5654 5654 5653 5655 5656 5656 5655 5656 5654 5654 5653 5653 5652 5654 5652 5652 5652 5651 5651 5649 5646 5644 5642 5641 5640 5640 5640 5639 5639 5639
5649 5651 5652 5653 5654 5653 5653 5654 5654 5654 5652 5651 5651 5651 5651 5650 5648 5648 5647 5647 5647 5648 5648 5645 5646 5645 5645 5643 5640 5639 5637 5636 5636 5635 5634 5634 5634 5633
5644 5645 5646 5647 5645 5644 5646 5648 5649 5649 5648 5646 5644 5644 5642 5642 5642 5642 5643 5642 5642 5643 5643 5640 5639 5638 5638 5637 5636 5634 5633 5632 5631 5630 5629 5629 5629 5628
5638 5639 5638 5639 5638 5637 5640 5641 5642 5643 5643 5643 5640 5639 5639 5638 5636 5636 5638 5637 5637 5636 5637 5634 5634 5632 5631 5632 5632 5630 5629 5628 5627 5625 5625 5624 5623 5624
5632 5634 5635 5631 5630 5629 5631 5634 5634 5634 5636 5637 5638 5638 5637 5636 5634 5633 5633 5633 5632 5631 5631 5628 5627 5626 5625 5625 5626 5626 5626 5625 5623 5621 5620 5619 5618 5618
5624 5627 5627 5624 5622 5622 5624 5625 5625 5625 5630 5632 5633 5633 5633 5631 5630 5629 5627 5626 5625 5625 5623 5621 5621 5619 5619 5619 5620 5621 5621 5620 5619 5619 5617 5615 5613 5612
5616 5616 5616 5615 5615 5617 5617 5617 5618 5622 5625 5626 5627 5627 5626 5625 5624 5623 5621 5620 5618 5618 5617 5615 5615 5614 5614 5615 5615 5616 5615 5614 5614 5614 5612 5611 5610 5610
5608 5608 5607 5608 5610 5611 5612 5614 5616 5618 5619 5620 5621 5621 5620 5619 5618 5618 5616 5616 5615 5613 5612 5610 5609 5608 5608 5609 5610 5610 5610 5609 5608 5608 5606 5606 5606 5606
5601 5603 5605 5606 5608 5609 5610 5611 5611 5612 5612 5613 5614 5614 5613 5613 5612 5612 5610 5611 5610 5608 5607 5606 5605 5603 5602 5603 5604 5604 5604 5603 5603 5602 5600 5600 5600 5600
5592 5598 5600 5602 5604 5605 5605 5606 5606 5606 5606 5607 5607 5607 5607 5606 5606 5605 5605 5604 5603 5603 5602 5602 5600 5598 5598 5598 5595 5597 5597 5597 5596 5595 5595 5595 5595 5594
5587 5593 5596 5597 5599 5600 5601 5601 5601 5601 5600 5600 5600 5600 5600 5599 5598 5598 5597 5597 5597 5596 5596 5596 5596 5595 5593 5594 5592 5589 5590 5590 5590 5590 5590 5589 5588 5588
5586 5590 5591 5593 5593 5594 5595 5595 5595 5595 5595 5595 5594 5594 5593 5592 5591 5591 5591 5591 5590 5590 5590 5590 5590 5589 5588 5588 5587 5585 5582 5584 5584 5584 5584 5583 5582 5580
5583 5584 5586 5588 5588 5588 5588 5588 5588 5588 5588 5588 5588 5587 5587 5586 5585 5585 5585 5582 5583 5584 5584 5584 5583 5580 5582 5582 5581 5581 5579 5576 5576 5576 5577 5577 5578 5577
5578 5579 5580 5581 5581 5581 5581 5581 5581 5581 5582 5582 5582 5582 5581 5580 5579 5579 5579 5578 5578 5579 5580 5579 5577 5577 5577 5576 5576 5576 5574 5572 5570 5568 5567 5567 5569 5571
5570 5572 5572 5573 5574 5574 5575 5575 5575 5576 5576 5575 5575 5575 5575 5574 5574 5574 5573 5572 5573 5573 5573 5572 5571 5571 5571 5571 5570 5570 5569 5568 5568 5566 5564 5560 5559 5557